Time,TemperatureF,DewpointF,PressureIn,WindDirection,WindDirectionDegrees,WindSpeedMPH,WindSpeedGustMPH,Humidity,HourlyPrecipIn,Conditions,Clouds,dailyrainin,SoftwareType,DateUTC
2014-04-24 00:02:00,29.0,25.0,-100.00,West,275,0.0,2.0,84,-99.99,,,-99.99,,2014-04-24 08:02:00,
2014-04-24 00:11:00,29.0,25.0,-100.00,West,275,0.0,2.0,84,-99.99,,,-99.99,,2014-04-24 08:11:00,
2014-04-24 00:22:00,28.0,25.0,-100.00,SSW,200,0.0,1.0,88,-99.99,,,-99.99,,2014-04-24 08:22:00,
2014-04-24 00:32:00,28.0,25.0,-100.00,SSW,200,0.0,1.0,88,-99.99,,,-99.99,,2014-04-24 08:32:00,
2014-04-24 00:42:00,28.0,25.0,-100.00,SSW,200,0.0,1.0,88,-99.99,,,-99.99,,2014-04-24 08:42:00,
2014-04-24 00:52:00,28.0,26.0,-100.00,ENE,75,0.0,0.0,91,-99.99,,,-99.99,,2014-04-24 08:52:00,
2014-04-24 01:01:00,28.0,26.0,-100.00,ENE,75,0.0,0.0,91,-99.99,,,-99.99,,2014-04-24 09:01:00,
2014-04-24 01:12:00,28.0,26.0,-100.00,ENE,75,0.0,0.0,91,-99.99,,,-99.99,,2014-04-24 09:12:00,
2014-04-24 01:22:00,27.0,26.0,-100.00,SW,230,1.0,2.0,93,-99.99,,,-99.99,,2014-04-24 09:22:00,
2014-04-24 01:34:00,27.0,26.0,-100.00,SW,230,1.0,2.0,93,-99.99,,,-99.99,,2014-04-24 09:34:00,
2014-04-24 01:43:00,27.0,26.0,-100.00,SW,230,1.0,2.0,93,-99.99,,,-99.99,,2014-04-24 09:43:00,
2014-04-24 01:53:00,27.0,26.0,-100.00,SW,220,0.0,0.0,95,-99.99,,,-99.99,,2014-04-24 09:53:00,
2014-04-24 02:03:00,27.0,26.0,-100.00,SW,220,0.0,0.0,95,-99.99,,,-99.99,,2014-04-24 10:03:00,
2014-04-24 02:13:00,27.0,26.0,-100.00,SW,220,0.0,0.0,95,-99.99,,,-99.99,,2014-04-24 10:13:00,
2014-04-24 02:23:00,26.0,25.0,-100.00,NE,55,0.0,1.0,96,-99.99,,,-99.99,,2014-04-24 10:23:00,
2014-04-24 02:33:00,26.0,25.0,-100.00,NE,55,0.0,1.0,96,-99.99,,,-99.99,,2014-04-24 10:33:00,
2014-04-24 02:43:00,26.0,25.0,-100.00,NE,55,0.0,1.0,96,-99.99,,,-99.99,,2014-04-24 10:43:00,
2014-04-24 02:54:00,26.0,25.0,-100.00,North,0,0.0,1.0,96,-99.99,,,-99.99,,2014-04-24 10:54:00,
2014-04-24 03:03:00,26.0,25.0,-100.00,North,0,0.0,1.0,96,-99.99,,,-99.99,,2014-04-24 11:03:00,
2014-04-24 03:12:00,26.0,25.0,-100.00,North,0,0.0,1.0,96,-99.99,,,-99.99,,2014-04-24 11:12:00,
2014-04-24 03:22:00,26.0,25.0,-100.00,SW,230,3.0,4.0,97,-99.99,,,-99.99,,2014-04-24 11:22:00,
2014-04-24 03:34:00,26.0,25.0,-100.00,SW,230,3.0,4.0,97,-99.99,,,-99.99,,2014-04-24 11:34:00,
2014-04-24 03:42:00,26.0,25.0,-100.00,SW,230,3.0,4.0,97,-99.99,,,-99.99,,2014-04-24 11:42:00,
2014-04-24 03:52:00,24.0,24.0,-100.00,SW,225,0.0,1.0,97,-99.99,,,-99.99,,2014-04-24 11:52:00,
2014-04-24 04:02:00,24.0,24.0,-100.00,SW,225,0.0,1.0,97,-99.99,,,-99.99,,2014-04-24 12:02:00,
2014-04-24 04:12:00,24.0,24.0,-100.00,SW,225,0.0,1.0,97,-99.99,,,-99.99,,2014-04-24 12:12:00,
2014-04-24 04:22:00,24.0,23.0,-100.00,WSW,240,0.0,1.0,98,-99.99,,,-99.99,,2014-04-24 12:22:00,
2014-04-24 04:32:00,24.0,23.0,-100.00,WSW,240,0.0,1.0,98,-99.99,,,-99.99,,2014-04-24 12:32:00,
2014-04-24 04:42:00,24.0,23.0,-100.00,WSW,240,0.0,1.0,98,-99.99,,,-99.99,,2014-04-24 12:42:00,
2014-04-24 04:52:00,24.0,23.0,-100.00,North,10,0.0,1.0,98,-99.99,,,-99.99,,2014-04-24 12:52:00,
2014-04-24 05:01:00,24.0,23.0,-100.00,North,10,0.0,1.0,98,-99.99,,,-99.99,,2014-04-24 13:01:00,
2014-04-24 05:11:00,24.0,23.0,-100.00,North,10,0.0,1.0,98,-99.99,,,-99.99,,2014-04-24 13:11:00,
2014-04-24 05:22:00,23.0,23.0,-100.00,WSW,255,0.0,1.0,99,-99.99,,,-99.99,,2014-04-24 13:22:00,
2014-04-24 05:32:00,23.0,23.0,-100.00,WSW,255,0.0,1.0,99,-99.99,,,-99.99,,2014-04-24 13:32:00,
2014-04-24 05:42:00,23.0,23.0,-100.00,WSW,255,0.0,1.0,99,-99.99,,,-99.99,,2014-04-24 13:42:00,
2014-04-24 05:52:00,23.0,23.0,-100.00,SW,230,1.0,1.0,99,-99.99,,,-99.99,,2014-04-24 13:52:00,
2014-04-24 06:02:00,23.0,23.0,-100.00,SW,230,1.0,1.0,99,-99.99,,,-99.99,,2014-04-24 14:02:00,
2014-04-24 06:12:00,23.0,23.0,-100.00,SW,230,1.0,1.0,99,-99.99,,,-99.99,,2014-04-24 14:12:00,
2014-04-24 06:21:00,22.0,22.0,-100.00,SW,220,0.0,0.0,99,-99.99,,,-99.99,,2014-04-24 14:21:00,
2014-04-24 06:32:00,22.0,22.0,-100.00,SW,220,0.0,0.0,99,-99.99,,,-99.99,,2014-04-24 14:32:00,
2014-04-24 06:42:00,22.0,22.0,-100.00,SW,220,0.0,0.0,99,-99.99,,,-99.99,,2014-04-24 14:42:00,
2014-04-24 06:52:00,22.0,22.0,-100.00,ENE,65,0.0,0.0,99,-99.99,,,-99.99,,2014-04-24 14:52:00,
2014-04-24 07:02:00,22.0,22.0,-100.00,ENE,65,0.0,0.0,99,-99.99,,,-99.99,,2014-04-24 15:02:00,
2014-04-24 07:12:00,22.0,22.0,-100.00,ENE,65,0.0,0.0,99,-99.99,,,-99.99,,2014-04-24 15:12:00,
2014-04-24 07:22:00,22.0,22.0,-100.00,SSE,160,0.0,1.0,99,-99.99,,,-99.99,,2014-04-24 15:22:00,
2014-04-24 07:34:00,22.0,22.0,-100.00,SSE,160,0.0,1.0,99,-99.99,,,-99.99,,2014-04-24 15:34:00,
2014-04-24 07:44:00,22.0,22.0,-100.00,SSE,160,0.0,1.0,99,-99.99,,,-99.99,,2014-04-24 15:44:00,
2014-04-24 07:54:00,22.0,22.0,-100.00,ENE,60,0.0,1.0,99,-99.99,,,-99.99,,2014-04-24 15:54:00,
2014-04-24 08:04:00,22.0,22.0,-100.00,ENE,60,0.0,1.0,99,-99.99,,,-99.99,,2014-04-24 16:04:00,
2014-04-24 08:13:00,22.0,22.0,-100.00,ENE,60,0.0,1.0,99,-99.99,,,-99.99,,2014-04-24 16:13:00,
2014-04-24 08:23:00,22.0,22.0,-100.00,SSW,205,0.0,1.0,99,-99.99,,,-99.99,,2014-04-24 16:23:00,
2014-04-24 08:33:00,22.0,22.0,-100.00,SSW,205,0.0,1.0,99,-99.99,,,-99.99,,2014-04-24 16:33:00,
2014-04-24 08:43:00,22.0,22.0,-100.00,SSW,205,0.0,1.0,99,-99.99,,,-99.99,,2014-04-24 16:43:00,
2014-04-24 08:54:00,22.0,22.0,-100.00,WSW,240,0.0,0.0,99,-99.99,,,-99.99,,2014-04-24 16:54:00,
2014-04-24 09:02:00,22.0,22.0,-100.00,WSW,240,0.0,0.0,99,-99.99,,,-99.99,,2014-04-24 17:02:00,
2014-04-24 09:12:00,22.0,22.0,-100.00,WSW,240,0.0,0.0,99,-99.99,,,-99.99,,2014-04-24 17:12:00,
2014-04-24 09:22:00,25.0,25.0,-100.00,ENE,60,0.0,1.0,99,-99.99,,,-99.99,,2014-04-24 17:22:00,
2014-04-24 09:33:00,25.0,25.0,-100.00,ENE,60,0.0,1.0,99,-99.99,,,-99.99,,2014-04-24 17:33:00,
2014-04-24 09:43:00,25.0,25.0,-100.00,ENE,60,0.0,1.0,99,-99.99,,,-99.99,,2014-04-24 17:43:00,
2014-04-24 09:52:00,31.0,29.0,-100.00,NE,55,2.0,3.0,91,-99.99,,,-99.99,,2014-04-24 17:52:00,
2014-04-24 10:02:00,31.0,29.0,-100.00,NE,55,2.0,3.0,91,-99.99,,,-99.99,,2014-04-24 18:02:00,
2014-04-24 10:12:00,31.0,29.0,-100.00,NE,55,2.0,3.0,91,-99.99,,,-99.99,,2014-04-24 18:12:00,
2014-04-24 10:22:00,35.0,26.0,-100.00,SSW,210,2.0,4.0,70,-99.99,,,-99.99,,2014-04-24 18:22:00,
2014-04-24 10:32:00,35.0,26.0,-100.00,SSW,210,2.0,4.0,70,-99.99,,,-99.99,,2014-04-24 18:32:00,
2014-04-24 10:42:00,35.0,26.0,-100.00,SSW,210,2.0,4.0,70,-99.99,,,-99.99,,2014-04-24 18:42:00,
2014-04-24 10:52:00,39.0,24.0,-100.00,South,190,2.0,4.0,55,-99.99,,,-99.99,,2014-04-24 18:52:00,
2014-04-24 11:01:00,39.0,24.0,-100.00,South,190,2.0,4.0,55,-99.99,,,-99.99,,2014-04-24 19:01:00,
2014-04-24 11:12:00,39.0,24.0,-100.00,South,190,2.0,4.0,55,-99.99,,,-99.99,,2014-04-24 19:12:00,
2014-04-24 11:21:00,41.0,24.0,-100.00,South,190,3.0,4.0,51,-99.99,,,-99.99,,2014-04-24 19:21:00,
2014-04-24 11:32:00,41.0,24.0,-100.00,South,190,3.0,4.0,51,-99.99,,,-99.99,,2014-04-24 19:32:00,
2014-04-24 11:42:00,41.0,24.0,-100.00,South,190,3.0,4.0,51,-99.99,,,-99.99,,2014-04-24 19:42:00,
2014-04-24 11:53:00,43.0,25.0,-100.00,SSW,195,2.0,4.0,48,-99.99,,,-99.99,,2014-04-24 19:53:00,
2014-04-24 12:02:00,43.0,25.0,-100.00,SSW,195,2.0,4.0,48,-99.99,,,-99.99,,2014-04-24 20:02:00,
2014-04-24 12:11:00,43.0,25.0,-100.00,SSW,195,2.0,4.0,48,-99.99,,,-99.99,,2014-04-24 20:11:00,
2014-04-24 12:22:00,45.0,25.0,-100.00,SSE,150,2.0,4.0,45,-99.99,,,-99.99,,2014-04-24 20:22:00,
2014-04-24 12:32:00,45.0,25.0,-100.00,SSE,150,2.0,4.0,45,-99.99,,,-99.99,,2014-04-24 20:32:00,
2014-04-24 12:42:00,45.0,25.0,-100.00,SSE,150,2.0,4.0,45,-99.99,,,-99.99,,2014-04-24 20:42:00,
2014-04-24 12:52:00,46.0,25.0,-100.00,East,100,2.0,6.0,43,-99.99,,,-99.99,,2014-04-24 20:52:00,
2014-04-24 13:02:00,46.0,25.0,-100.00,East,100,2.0,6.0,43,-99.99,,,-99.99,,2014-04-24 21:02:00,
2014-04-24 13:11:00,46.0,25.0,-100.00,East,100,2.0,6.0,43,-99.99,,,-99.99,,2014-04-24 21:11:00,
2014-04-24 13:21:00,46.0,25.0,-100.00,SE,125,3.0,6.0,43,-99.99,,,-99.99,,2014-04-24 21:21:00,
2014-04-24 13:33:00,46.0,25.0,-100.00,SE,125,3.0,6.0,43,-99.99,,,-99.99,,2014-04-24 21:33:00,
2014-04-24 13:42:00,46.0,25.0,-100.00,SE,125,3.0,6.0,43,-99.99,,,-99.99,,2014-04-24 21:42:00,
2014-04-24 13:54:00,48.0,24.0,-100.00,East,95,3.0,6.0,39,-99.99,,,-99.99,,2014-04-24 21:54:00,
2014-04-24 14:01:00,48.0,22.0,-100.00,SE,140,2.0,6.0,36,-99.99,,,-99.99,,2014-04-24 22:01:00,
2014-04-24 14:03:00,48.0,24.0,-100.00,East,95,3.0,6.0,39,-99.99,,,-99.99,,2014-04-24 22:03:00,
2014-04-24 14:13:00,48.0,24.0,-100.00,East,95,3.0,6.0,39,-99.99,,,-99.99,,2014-04-24 22:13:00,
2014-04-24 14:22:00,48.0,23.0,-100.00,SE,145,6.0,6.0,36,-99.99,,,-99.99,,2014-04-24 22:22:00,
2014-04-24 14:33:00,48.0,23.0,-100.00,SE,145,6.0,6.0,36,-99.99,,,-99.99,,2014-04-24 22:33:00,
2014-04-24 14:42:00,48.0,23.0,-100.00,SE,145,6.0,6.0,36,-99.99,,,-99.99,,2014-04-24 22:42:00,
2014-04-24 14:53:00,48.0,22.0,-100.00,SE,140,2.0,6.0,36,-99.99,,,-99.99,,2014-04-24 22:53:00,
2014-04-24 15:22:00,49.0,22.0,-100.00,SE,130,6.0,7.0,34,-99.99,,,-99.99,,2014-04-24 23:22:00,
2014-04-24 15:33:00,49.0,22.0,-100.00,SE,130,6.0,7.0,34,-99.99,,,-99.99,,2014-04-24 23:33:00,
2014-04-24 15:43:00,49.0,22.0,-100.00,SE,130,6.0,7.0,34,-99.99,,,-99.99,,2014-04-24 23:43:00,
2014-04-24 15:53:00,48.0,20.0,-100.00,South,190,4.0,7.0,31,-99.99,,,-99.99,,2014-04-24 23:53:00,
2014-04-24 16:02:00,48.0,20.0,-100.00,South,190,4.0,7.0,31,-99.99,,,-99.99,,2014-04-25 00:02:00,
2014-04-24 16:11:00,48.0,19.0,-100.00,South,175,6.0,9.0,30,-99.99,,,-99.99,,2014-04-25 00:11:00,
2014-04-24 16:12:00,48.0,20.0,-100.00,South,190,4.0,7.0,31,-99.99,,,-99.99,,2014-04-25 00:12:00,
2014-04-24 16:21:00,49.0,20.0,-100.00,South,180,4.0,7.0,31,-99.99,,,-99.99,,2014-04-25 00:21:00,
2014-04-24 16:31:00,49.0,20.0,-100.00,South,180,4.0,7.0,31,-99.99,,,-99.99,,2014-04-25 00:31:00,
2014-04-24 16:41:00,49.0,20.0,-100.00,South,180,4.0,7.0,31,-99.99,,,-99.99,,2014-04-25 00:41:00,
2014-04-24 16:51:00,48.0,19.0,-100.00,South,175,6.0,9.0,30,-99.99,,,-99.99,,2014-04-25 00:51:00,
2014-04-24 17:01:00,48.0,19.0,-100.00,South,175,6.0,9.0,30,-99.99,,,-99.99,,2014-04-25 01:01:00,
2014-04-24 17:22:00,47.0,20.0,-100.00,SSE,165,6.0,9.0,34,-99.99,,,-99.99,,2014-04-25 01:22:00,
2014-04-24 17:32:00,47.0,20.0,-100.00,SSE,165,6.0,9.0,34,-99.99,,,-99.99,,2014-04-25 01:32:00,
2014-04-24 17:42:00,47.0,20.0,-100.00,SSE,165,6.0,9.0,34,-99.99,,,-99.99,,2014-04-25 01:42:00,
2014-04-24 17:52:00,45.0,20.0,-100.00,SSE,155,9.0,12.0,36,-99.99,,,-99.99,,2014-04-25 01:52:00,
2014-04-24 18:02:00,45.0,20.0,-100.00,SSE,155,9.0,12.0,36,-99.99,,,-99.99,,2014-04-25 02:02:00,
2014-04-24 18:12:00,45.0,20.0,-100.00,SSE,155,9.0,12.0,36,-99.99,,,-99.99,,2014-04-25 02:12:00,
2014-04-24 18:21:00,45.0,21.0,-100.00,SE,140,6.0,13.0,37,-99.99,,,-99.99,,2014-04-25 02:21:00,
2014-04-24 18:32:00,45.0,21.0,-100.00,SE,140,6.0,13.0,37,-99.99,,,-99.99,,2014-04-25 02:32:00,
2014-04-24 18:42:00,45.0,21.0,-100.00,SE,140,6.0,13.0,37,-99.99,,,-99.99,,2014-04-25 02:42:00,
2014-04-24 18:52:00,44.0,21.0,-100.00,SSE,155,7.0,12.0,39,-99.99,,,-99.99,,2014-04-25 02:52:00,
2014-04-24 19:02:00,44.0,21.0,-100.00,SSE,155,7.0,12.0,39,-99.99,,,-99.99,,2014-04-25 03:02:00,
2014-04-24 19:12:00,44.0,21.0,-100.00,SSE,155,7.0,12.0,39,-99.99,,,-99.99,,2014-04-25 03:12:00,
2014-04-24 19:21:00,43.0,21.0,-100.00,SSE,150,7.0,17.0,42,-99.99,,,-99.99,,2014-04-25 03:21:00,
2014-04-24 19:33:00,43.0,21.0,-100.00,SSE,150,7.0,17.0,42,-99.99,,,-99.99,,2014-04-25 03:33:00,
2014-04-24 19:43:00,43.0,21.0,-100.00,SSE,150,7.0,17.0,42,-99.99,,,-99.99,,2014-04-25 03:43:00,
2014-04-24 19:54:00,42.0,21.0,-100.00,SSE,155,6.0,14.0,41,-99.99,,,-99.99,,2014-04-25 03:54:00,
2014-04-24 20:04:00,42.0,21.0,-100.00,SSE,155,6.0,14.0,41,-99.99,,,-99.99,,2014-04-25 04:04:00,
2014-04-24 20:13:00,42.0,21.0,-100.00,SSE,155,6.0,14.0,41,-99.99,,,-99.99,,2014-04-25 04:13:00,
2014-04-24 20:23:00,41.0,19.0,-100.00,South,185,6.0,11.0,40,-99.99,,,-99.99,,2014-04-25 04:23:00,
2014-04-24 20:33:00,41.0,19.0,-100.00,South,185,6.0,11.0,40,-99.99,,,-99.99,,2014-04-25 04:33:00,
2014-04-24 20:43:00,41.0,19.0,-100.00,South,185,6.0,11.0,40,-99.99,,,-99.99,,2014-04-25 04:43:00,
2014-04-24 20:53:00,41.0,19.0,-100.00,WSW,255,1.0,8.0,41,-99.99,,,-99.99,,2014-04-25 04:53:00,
2014-04-24 21:03:00,41.0,19.0,-100.00,WSW,255,1.0,8.0,41,-99.99,,,-99.99,,2014-04-25 05:03:00,
2014-04-24 21:13:00,41.0,19.0,-100.00,WSW,255,1.0,8.0,41,-99.99,,,-99.99,,2014-04-25 05:13:00,
2014-04-24 21:22:00,40.0,19.0,-100.00,South,170,3.0,7.0,43,-99.99,,,-99.99,,2014-04-25 05:22:00,
2014-04-24 21:33:00,40.0,19.0,-100.00,South,170,3.0,7.0,43,-99.99,,,-99.99,,2014-04-25 05:33:00,
2014-04-24 21:43:00,40.0,19.0,-100.00,South,170,3.0,7.0,43,-99.99,,,-99.99,,2014-04-25 05:43:00,
2014-04-24 21:54:00,39.0,19.0,-100.00,South,175,2.0,8.0,45,-99.99,,,-99.99,,2014-04-25 05:54:00,
2014-04-24 22:02:00,39.0,19.0,-100.00,South,175,2.0,8.0,45,-99.99,,,-99.99,,2014-04-25 06:02:00,
2014-04-24 22:12:00,39.0,19.0,-100.00,South,175,2.0,8.0,45,-99.99,,,-99.99,,2014-04-25 06:12:00,
2014-04-24 22:22:00,37.0,19.0,-100.00,NE,40,3.0,8.0,47,-99.99,,,-99.99,,2014-04-25 06:22:00,
2014-04-24 22:33:00,37.0,19.0,-100.00,NE,40,3.0,8.0,47,-99.99,,,-99.99,,2014-04-25 06:33:00,
2014-04-24 22:42:00,37.0,19.0,-100.00,NE,40,3.0,8.0,47,-99.99,,,-99.99,,2014-04-25 06:42:00,
2014-04-24 22:52:00,35.0,19.0,-100.00,East,80,0.0,5.0,50,-99.99,,,-99.99,,2014-04-25 06:52:00,
2014-04-24 23:02:00,35.0,19.0,-100.00,East,80,0.0,5.0,50,-99.99,,,-99.99,,2014-04-25 07:02:00,
2014-04-24 23:11:00,35.0,19.0,-100.00,East,80,0.0,5.0,50,-99.99,,,-99.99,,2014-04-25 07:11:00,
2014-04-24 23:21:00,34.0,19.0,-100.00,North,350,0.0,4.0,54,-99.99,,,-99.99,,2014-04-25 07:21:00,
2014-04-24 23:32:00,34.0,19.0,-100.00,North,350,0.0,4.0,54,-99.99,,,-99.99,,2014-04-25 07:32:00,
2014-04-24 23:42:00,34.0,19.0,-100.00,North,350,0.0,4.0,54,-99.99,,,-99.99,,2014-04-25 07:42:00,